Theta_e
321 324 327 331 332 333 333 333 332 332 337 340 339 339 338 338 335 332 331 331 331 332 333 335 335 336 336 327 322 322 322 323 324 323 322 321 320 319 319 319 321 327 333 335 335 337 336 330 324 322 322 322 322 322 322 321 320 319 318 317 317 319 323 325 324 325 326 329 331 333 335 332 329 329 329 329 329 330 328 327 328 328 328 328 328
319 322 324 329 331 332 333 332 331 331 335 337 338 339 339 336 333 331 330 330 330 331 332 334 335 337 334 325 321 321 322 323 322 322 322 321 320 320 320 320 325 332 334 335 336 337 336 332 326 324 324 323 324 323 323 322 322 321 320 318 318 318 319 319 319 322 324 326 328 330 331 330 330 329 329 329 329 330 330 329 328 329 330 330 330
319 322 322 326 329 330 331 331 331 331 332 333 336 337 337 333 330 329 329 330 330 331 332 333 334 336 333 323 321 321 321 322 321 321 321 321 320 320 321 321 325 331 332 334 335 334 336 334 329 326 324 324 323 323 322 322 322 322 322 321 320 319 320 321 320 321 322 323 326 327 328 328 326 324 324 325 326 326 325 325 324 325 327 328 333
319 321 321 324 326 329 329 329 330 330 331 331 334 336 335 331 330 330 330 331 332 333 333 333 334 336 332 323 321 321 321 321 321 321 321 321 321 321 321 321 323 328 331 334 334 333 335 336 331 326 324 324 324 323 322 322 322 322 322 322 322 321 320 322 323 323 322 322 325 325 326 326 326 324 324 325 325 324 322 320 318 318 319 323 331
319 320 321 323 325 327 327 328 328 329 330 330 332 334 334 331 330 329 330 331 333 334 333 334 335 336 330 322 322 321 322 322 322 322 321 321 321 321 321 320 322 327 331 333 334 333 335 335 330 326 324 324 325 324 323 322 321 321 321 321 322 322 322 322 322 323 323 323 324 324 325 325 325 324 325 325 324 325 324 323 320 318 317 318 327
319 319 320 322 323 327 326 327 327 327 328 328 331 332 332 330 330 329 330 331 332 333 333 334 335 334 327 323 322 322 323 323 323 322 322 322 321 322 321 320 321 326 330 332 334 333 334 334 329 325 323 322 324 324 324 323 322 321 320 320 319 320 321 322 322 322 322 323 324 324 325 326 325 325 327 326 325 325 324 324 324 323 321 319 322
319 319 320 320 322 325 326 327 326 327 326 327 328 329 330 330 330 329 330 330 329 329 332 335 335 331 325 323 323 323 323 323 323 323 323 323 322 322 322 320 321 326 328 330 333 333 333 331 329 325 323 321 320 319 320 323 323 323 322 320 318 318 318 319 321 322 322 322 323 323 325 326 327 329 331 332 332 330 328 325 324 325 325 324 321
319 319 319 319 321 323 325 326 326 326 326 326 327 327 328 328 328 328 329 328 326 327 331 334 333 329 324 323 323 323 323 323 323 324 324 323 323 322 322 321 320 326 328 329 332 332 332 330 328 326 323 322 320 316 314 316 318 320 321 321 318 315 315 315 316 319 321 321 322 323 325 326 327 331 333 333 334 334 332 329 326 325 325 325 324
318 319 319 319 319 321 323 324 325 326 326 326 326 327 327 327 327 327 329 326 324 326 330 332 331 327 324 324 324 324 323 323 324 324 324 322 322 322 323 321 322 328 328 329 330 331 331 329 327 325 324 323 320 316 312 311 312 313 314 314 313 311 312 312 312 314 317 318 319 322 325 326 326 330 332 332 332 333 334 332 329 326 323 322 323
317 319 319 319 319 320 321 323 324 324 325 326 326 327 327 327 327 328 327 325 324 324 326 328 328 326 325 324 324 324 323 323 323 323 324 323 322 323 322 321 324 330 331 330 330 329 329 328 326 323 320 319 316 313 311 311 311 310 310 310 310 310 309 310 310 311 312 312 315 319 322 324 324 327 331 331 331 332 332 333 331 328 325 322 321
316 318 319 320 320 320 321 322 323 324 324 325 325 326 326 326 327 327 326 325 324 323 324 325 325 325 325 325 325 324 324 323 323 322 325 325 322 323 323 322 324 329 332 331 330 328 328 326 322 317 314 313 312 310 309 309 310 309 309 308 306 307 307 307 307 308 308 308 310 313 316 319 320 323 328 329 330 331 330 330 331 329 326 322 319
315 317 319 320 320 320 321 322 323 324 325 325 325 326 326 326 326 326 325 324 323 323 323 323 323 324 324 324 324 324 323 323 324 323 327 326 322 323 323 321 325 329 331 330 329 326 324 321 315 313 313 312 310 308 307 307 308 307 306 305 304 304 305 305 305 305 306 306 307 308 310 312 315 318 323 327 329 328 326 325 326 326 324 323 323
315 315 317 319 320 320 321 321 322 324 325 325 325 326 326 326 326 326 325 324 323 323 322 323 323 323 323 323 323 324 323 323 327 327 329 328 323 323 324 324 326 327 328 326 322 318 316 314 311 310 312 312 311 306 305 305 305 304 304 304 304 304 304 304 304 304 304 305 305 306 307 308 309 312 315 319 321 320 318 315 317 319 320 325 330
315 315 315 317 319 320 320 321 322 323 324 325 325 326 326 326 326 326 326 325 324 323 322 322 322 323 323 323 324 324 324 324 328 330 330 331 326 322 324 324 324 323 322 319 316 313 312 311 309 310 310 311 309 305 304 304 304 304 304 305 306 306 306 306 305 305 305 305 305 305 306 306 307 309 310 311 312 311 311 310 310 311 315 327 332
315 315 315 315 316 318 319 320 321 322 323 324 325 325 326 325 326 327 327 327 326 325 323 323 322 322 322 322 324 324 324 325 327 328 328 330 329 326 323 321 321 322 321 318 316 313 311 309 309 310 310 309 307 305 304 303 303 304 305 306 307 308 308 307 307 307 306 306 305 305 305 306 306 308 309 309 309 309 309 309 307 308 311 320 324
315 315 314 314 315 316 317 319 320 322 323 323 324 325 326 325 325 326 327 327 327 327 326 325 324 324 324 323 324 324 324 324 326 327 325 328 331 330 326 324 323 324 323 320 316 311 309 309 310 311 309 307 305 304 304 303 303 304 306 307 308 307 308 307 307 307 307 307 306 306 305 306 306 308 313 312 308 308 308 307 306 306 307 311 313
316 316 315 315 314 315 316 317 320 321 322 323 324 324 325 326 326 326 326 327 327 328 327 327 326 326 326 323 323 325 324 324 327 328 326 328 330 331 329 327 326 325 323 320 316 311 309 309 309 310 309 306 304 304 303 303 304 305 307 307 307 307 307 307 307 307 307 307 307 307 306 306 305 307 312 311 307 308 308 307 306 305 306 307 308
316 316 315 315 314 314 315 316 318 320 322 323 324 324 325 326 326 326 326 326 326 327 328 328 328 327 326 324 323 324 324 323 326 328 328 329 330 331 330 329 329 328 324 319 315 311 309 309 308 308 307 305 304 304 303 303 304 306 307 306 307 306 306 306 306 306 306 307 306 307 306 306 306 306 308 308 307 307 307 306 306 306 305 305 306
316 316 315 315 315 315 315 315 316 319 321 323 324 324 325 326 326 327 327 327 327 327 328 328 328 328 327 325 323 323 322 322 325 327 327 328 329 331 331 330 330 329 326 323 316 310 309 308 307 307 306 304 304 304 303 303 304 306 306 306 306 306 306 306 306 306 306 306 306 306 306 306 306 306 306 306 307 307 306 306 306 306 306 306 306
316 316 316 316 316 315 315 315 316 317 319 321 323 324 325 326 327 327 328 327 327 328 328 328 328 328 328 327 325 323 321 321 323 325 325 326 328 330 331 331 331 328 326 325 318 311 310 308 306 306 305 304 303 303 303 303 304 306 306 306 306 306 306 306 306 307 306 306 306 306 306 306 306 306 306 306 306 306 306 306 306 306 306 306 306
316 316 316 316 316 316 316 316 316 316 317 318 320 322 324 325 327 328 328 328 327 328 329 329 329 329 329 328 327 325 323 321 321 323 323 324 325 328 330 331 331 328 324 323 321 314 310 307 306 306 305 304 303 303 303 303 304 306 306 306 306 306 306 306 307 307 307 307 306 306 306 306 306 306 306 306 306 306 306 306 306 306 306 306 306
316 316 316 316 316 316 316 316 316 316 317 317 318 319 321 323 325 327 328 328 329 329 329 329 329 329 329 329 327 326 325 322 321 323 323 323 325 326 328 329 330 328 324 322 322 316 311 307 306 305 305 304 303 303 303 303 304 305 306 305 305 305 306 307 307 307 307 307 307 307 307 306 306 306 306 306 306 306 306 306 306 306 306 306 306
315 316 316 316 316 316 316 316 316 316 317 318 318 318 318 320 322 324 326 328 329 329 329 329 329 329 329 329 328 326 324 323 322 322 322 323 324 326 327 328 329 329 327 324 322 318 312 307 306 304 305 304 303 303 303 303 304 305 306 305 305 305 306 307 307 307 307 307 307 307 307 307 307 306 306 306 306 306 306 306 306 306 306 306 306
315 315 315 315 316 316 316 316 316 316 317 317 318 318 318 318 319 322 324 326 327 328 328 328 328 328 329 328 328 327 323 322 322 323 322 322 323 325 327 326 327 328 328 326 322 319 313 308 307 305 304 304 304 303 303 303 303 305 305 305 305 305 306 307 307 307 307 307 307 307 307 307 307 307 307 306 306 306 306 306 306 306 306 306 306
315 314 314 315 315 316 316 316 316 316 317 317 318 318 319 319 319 320 322 324 327 329 329 328 328 326 326 327 327 328 326 323 322 322 322 322 323 323 326 327 327 328 328 326 323 321 317 310 309 307 305 304 303 303 303 302 303 304 305 305 305 305 306 307 307 308 307 308 308 308 307 307 307 307 307 307 307 306 306 306 306 306 306 306 307
314 314 314 314 315 316 316 315 315 315 316 317 318 319 319 320 320 320 321 321 323 327 330 331 332 328 325 326 326 326 328 327 324 322 323 327 329 326 325 327 327 327 328 327 325 325 320 314 312 310 308 306 304 303 302 302 302 303 304 305 305 305 306 307 307 307 307 308 308 308 307 307 307 307 307 307 307 307 307 306 306 306 306 307 308
314 314 314 314 314 315 316 315 315 315 315 316 317 318 319 320 321 322 322 321 322 329 335 332 331 332 332 333 332 329 326 325 324 324 324 327 331 331 330 330 328 325 326 327 326 326 323 317 315 313 312 309 306 303 302 302 302 303 304 305 305 305 305 306 307 307 307 308 307 308 308 307 307 307 307 307 307 307 307 307 306 306 307 309 308
313 314 314 314 314 315 315 315 315 315 315 316 317 318 319 320 321 322 323 323 323 327 334 336 333 332 334 334 334 334 331 329 328 324 323 323 324 327 329 332 330 324 324 328 326 324 323 319 317 316 315 313 309 306 303 302 302 302 303 304 304 304 304 305 306 307 307 307 307 307 307 307 307 307 307 307 307 307 307 307 307 307 307 309 308
313 314 314 314 315 315 315 315 315 315 316 316 317 319 319 320 321 321 322 323 324 323 326 334 335 331 331 331 329 331 332 334 332 326 327 328 324 322 322 323 326 326 326 327 325 324 323 319 317 318 318 316 313 310 305 302 302 301 302 303 304 304 304 304 305 306 307 307 307 307 307 307 307 307 307 307 307 307 307 307 307 307 307 308 307
313 313 313 314 315 315 315 315 315 315 316 317 318 319 320 321 321 322 323 323 324 325 325 327 330 329 331 333 331 329 331 331 329 327 329 330 324 323 325 323 325 329 329 326 324 325 322 318 319 321 320 318 316 314 309 305 302 301 301 302 303 304 304 304 304 305 306 306 307 306 306 306 306 306 306 306 306 306 306 306 307 306 307 307 307
312 312 313 314 314 315 315 315 315 315 315 316 318 320 321 322 323 323 324 324 324 325 326 326 326 327 328 331 331 329 330 328 326 326 326 325 322 322 328 329 326 325 326 325 324 323 321 321 324 323 320 319 318 317 314 309 304 302 301 301 302 303 303 303 303 304 305 306 306 306 306 306 306 306 306 306 306 306 306 306 306 306 307 307 307
311 311 312 313 314 315 315 315 315 315 315 316 318 320 322 322 323 323 324 325 325 324 324 325 325 325 325 328 328 327 327 327 326 326 325 323 321 322 326 327 325 323 326 327 324 322 322 324 324 321 319 319 319 318 316 314 309 304 301 301 301 302 303 303 303 303 304 305 305 306 306 306 306 306 305 305 305 305 305 305 305 306 306 306 306
311 311 312 312 313 313 315 315 315 315 315 316 317 319 321 322 322 323 324 325 325 326 325 325 327 327 325 324 325 325 325 326 325 324 324 322 322 325 327 326 326 325 326 327 325 323 325 325 322 320 319 319 320 319 318 316 313 308 304 301 300 301 302 302 303 303 303 304 304 305 306 306 306 305 305 305 305 305 305 305 305 305 305 305 305
310 310 311 311 312 313 314 315 315 316 316 316 318 318 320 322 322 322 323 324 325 327 328 327 327 326 324 324 326 324 322 323 323 322 323 322 323 325 325 324 325 324 323 324 324 324 326 325 322 320 320 321 321 320 319 317 315 311 306 303 301 300 300 301 302 302 303 303 303 304 304 305 305 305 305 305 304 304 304 304 304 305 304 305 305
309 310 311 312 313 313 313 315 315 315 316 317 317 318 320 321 321 321 322 323 324 325 327 328 328 328 327 328 328 325 323 323 322 321 322 322 325 326 324 323 323 323 324 324 324 323 324 323 322 322 322 322 321 320 319 318 316 314 310 306 303 301 300 300 300 301 302 302 303 303 303 304 304 304 304 304 304 304 304 304 304 304 304 304 304
309 310 311 313 313 314 314 315 316 316 316 316 317 318 319 320 321 321 321 322 323 324 325 327 327 328 329 328 327 326 327 327 325 325 325 325 326 326 325 324 324 323 323 323 323 322 322 322 323 323 322 321 320 319 318 318 317 317 316 313 309 306 303 301 300 300 300 301 302 302 302 303 303 303 304 304 304 304 304 304 303 303 303 303 303
309 310 311 313 313 314 315 315 315 315 315 316 317 318 319 320 320 321 321 321 323 323 324 324 324 325 326 326 326 327 327 327 327 327 327 326 324 324 324 326 326 323 321 323 324 324 323 322 323 322 321 321 320 319 318 317 316 317 317 316 315 312 309 306 304 301 300 300 301 301 302 302 302 302 302 303 303 303 303 303 303 303 303 303 303
309 310 311 312 312 313 314 314 314 314 315 316 317 318 319 319 320 320 320 321 321 321 322 322 322 322 323 323 323 324 324 324 325 325 325 325 325 325 325 325 325 323 322 324 324 324 324 323 323 323 322 321 319 319 318 317 316 316 316 316 315 315 314 312 310 306 303 301 300 300 300 301 302 302 302 302 302 302 303 303 303 303 303 302 302
309 309 310 310 311 311 311 312 312 313 315 316 317 318 319 319 319 319 320 320 319 319 320 320 320 321 322 322 322 322 322 322 324 325 325 324 324 324 325 325 324 324 323 323 322 321 322 323 323 323 322 320 319 318 318 317 317 316 315 315 315 315 315 314 313 311 309 305 302 300 299 300 300 301 301 301 301 302 302 302 302 302 302 302 302
308 309 309 310 310 310 310 310 310 311 313 315 317 318 319 319 318 319 319 318 317 317 318 317 318 319 320 321 322 322 322 321 321 322 323 323 323 323 323 323 323 323 323 322 321 321 322 322 322 322 321 319 318 318 317 316 316 316 315 314 314 314 314 314 314 314 312 310 307 304 301 299 299 299 300 300 300 301 301 301 301 302 302 302 302
308 308 308 308 309 309 309 309 309 310 311 312 313 314 315 316 316 317 317 317 316 316 316 316 316 317 317 317 318 319 320 319 319 319 320 320 321 321 321 321 322 322 322 321 320 321 321 320 320 320 320 319 318 317 317 316 316 315 314 314 314 314 314 313 313 313 313 313 311 309 306 303 300 299 298 299 299 300 300 300 301 301 301 301 301
306 306 307 306 307 307 307 308 308 309 309 309 309 310 310 311 311 311 312 313 313 313 314 313 313 313 314 314 313 313 314 315 316 317 318 318 318 318 318 319 320 320 319 319 319 319 319 319 319 318 318 318 317 317 316 315 315 314 314 313 313 313 312 312 312 312 312 312 312 311 310 307 304 301 299 299 298 298 299 299 300 300 300 300 301
306 305 306 306 306 306 306 306 307 307 307 307 307 307 307 307 307 307 308 308 308 308 308 308 307 308 308 308 308 308 309 309 310 311 313 314 315 315 315 316 317 317 317 317 318 318 317 317 316 316 316 316 316 315 315 314 314 313 313 311 311 311 311 311 311 311 311 311 311 311 311 310 307 303 300 299 298 298 298 298 298 299 299 299 300
306 306 306 306 306 306 306 307 306 306 307 307 307 306 306 306 306 306 306 306 306 305 305 305 305 305 304 304 305 305 305 305 305 305 306 306 307 308 309 311 312 312 313 313 314 314 314 314 314 314 314 314 314 314 313 313 312 312 311 310 309 309 309 309 309 310 310 310 310 310 310 309 307 303 301 299 298 298 298 298 297 298 298 298 299
306 306 306 306 306 306 306 306 306 306 306 306 306 306 306 306 306 306 306 305 305 304 304 304 304 304 304 304 304 304 304 304 304 304 304 304 304 304 305 305 305 305 306 307 307 308 309 310 311 311 311 311 312 312 311 311 311 310 309 307 307 306 305 306 306 307 308 308 309 309 309 309 308 306 305 303 301 299 297 297 298 297 297 297 298
305 305 305 304 304 304 304 304 304 304 304 304 304 305 305 305 305 305 305 305 305 305 305 305 304 304 304 304 304 304 304 304 304 304 304 304 304 304 304 304 304 303 303 303 303 304 305 306 307 307 308 308 309 309 309 309 308 308 308 306 304 303 302 303 303 303 306 307 307 307 307 308 308 308 309 308 306 303 301 299 298 298 298 297 297
303 303 303 303 303 303 303 303 303 303 302 302 303 303 303 303 303 303 304 303 304 303 303 304 304 304 304 304 304 304 304 304 304 304 304 304 303 303 303 303 303 303 303 302 302 302 302 302 303 303 304 305 306 306 306 306 306 306 306 305 304 302 301 301 301 301 302 305 306 305 305 305 306 306 307 308 308 308 306 305 303 301 299 298 298
302 302 302 302 302 302 302 302 302 302 302 302 302 302 302 302 302 302 302 302 302 302 302 302 302 302 303 303 303 303 303 303 303 303 303 302 302 302 302 302 302 302 301 302 301 301 301 300 300 300 300 301 302 302 303 303 303 304 304 304 304 303 303 302 301 300 298 300 303 305 304 304 304 304 305 305 306 307 307 307 307 305 303 301 299
301 301 301 301 301 301 301 301 302 301 301 301 301 301 301 301 301 301 301 301 301 301 301 301 301 301 301 301 301 301 301 301 301 301 301 301 301 300 300 300 300 300 300 300 299 299 299 299 299 299 299 299 299 299 299 300 300 301 301 301 302 302 302 302 302 301 299 298 300 302 303 303 303 303 303 303 304 304 305 306 306 307 306 305 303
301 301 301 301 300 301 301 301 301 301 300 300 300 300 300 300 300 300 300 300 300 300 300 300 300 300 300 300 300 300 299 299 299 299 299 299 298 298 298 298 298 297 297 297 297 296 296 296 295 295 295 295 295 296 296 296 297 297 298 298 299 299 299 300 300 301 300 299 299 300 301 301 302 302 302 302 302 302 303 303 304 305 306 306 306
300 300 300 300 300 300 300 300 300 300 300 300 299 299 299 299 299 299 299 299 299 298 298 298 298 298 298 298 297 297 297 297 296 296 296 295 295 294 294 294 293 293 294 293 293 293 292 291 291 291 291 291 291 291 291 291 292 292 292 293 294 295 295 296 297 298 298 299 298 298 299 300 299 300 301 301 301 301 301 302 302 303 304 305 306
Wind_Speed
10 12 15 17 18 19 17 15 14 15 16 15 16 15 14 14 13 13 12 12 10 8 7 7 6 5 5 5 5 4 4 4 5 6 6 6 5 5 4 4 5 6 5 5 4 3 3 3 2 1 0 0 1 2 2 3 3 3 3 3 2 2 3 2 3 5 4 4 5 7 7 6 6 5 5 4 4 3 3 3 3 4 4 3 4
9 11 14 17 17 17 16 15 14 14 15 15 15 14 14 14 13 12 12 11 10 8 7 7 6 6 6 6 6 6 5 5 5 5 5 5 4 3 3 4 5 5 3 3 2 1 2 2 3 2 1 0 0 1 2 2 3 3 3 3 3 2 2 2 2 3 3 3 3 5 6 7 6 6 5 5 5 5 4 4 4 4 4 4 4
8 10 11 15 16 16 16 15 15 14 14 14 14 13 13 13 12 10 10 10 9 8 8 7 6 7 7 8 8 7 6 5 4 4 4 3 2 2 2 3 5 5 3 2 0 2 1 1 2 3 1 1 0 0 0 1 1 2 2 2 2 3 3 3 2 1 1 2 2 3 4 5 6 6 5 5 5 5 5 5 5 4 4 5 6
6 9 10 13 15 15 15 14 14 15 15 15 14 13 13 12 12 10 9 9 9 9 8 8 7 7 8 9 7 5 4 3 2 2 1 1 1 1 0 1 4 4 2 2 1 3 2 2 1 2 1 1 1 1 1 1 1 1 2 2 1 2 3 3 2 1 0 0 1 2 2 3 4 4 4 4 4 4 5 5 5 5 4 5 7
5 8 10 12 14 15 15 14 14 14 14 15 15 13 13 12 12 11 9 9 9 9 9 8 7 7 8 7 5 3 2 1 1 1 1 2 3 3 2 1 2 3 2 2 2 3 4 3 0 2 2 1 1 1 1 1 1 1 1 1 1 1 1 1 0 1 1 1 1 1 1 2 1 2 3 2 2 2 2 3 4 5 5 5 6
4 6 9 10 12 14 14 14 13 13 13 14 14 13 13 13 12 11 9 9 9 10 9 8 7 7 7 6 5 3 2 2 2 2 3 3 4 4 4 3 1 2 3 3 4 4 5 4 1 2 3 2 1 1 2 2 2 2 2 1 1 1 1 1 1 2 1 1 2 2 2 2 2 2 3 3 3 3 2 1 1 2 3 4 5
3 5 7 9 11 13 13 14 13 13 13 13 13 13 13 13 12 10 9 9 9 9 9 9 8 8 8 7 6 5 4 3 2 3 3 4 5 5 4 3 1 2 4 4 5 5 6 5 3 3 3 4 3 3 3 4 5 5 5 4 4 4 3 3 3 3 3 3 3 4 3 2 2 2 3 4 4 3 3 3 2 1 0 1 2
2 4 5 7 9 11 13 13 13 13 13 12 12 12 12 12 11 9 8 8 8 8 8 9 9 9 9 8 7 6 4 3 3 4 4 5 5 5 4 3 2 3 5 6 6 6 7 6 4 4 5 6 6 5 5 5 6 7 7 6 7 7 7 6 5 5 5 5 5 5 3 2 1 1 2 2 3 3 3 3 3 3 2 2 1
1 3 4 5 7 10 12 12 13 13 12 12 11 11 11 10 9 8 7 7 7 7 7 8 9 10 9 9 7 6 5 4 4 5 6 6 5 5 4 3 4 4 5 7 7 7 6 5 4 4 6 8 8 8 7 6 7 8 8 8 8 8 8 8 7 7 7 7 6 5 4 3 2 1 0 1 2 3 3 3 4 4 4 4 4
1 2 3 4 6 8 10 12 12 12 12 12 11 11 11 10 9 8 7 7 7 7 7 8 9 9 9 9 8 7 6 6 6 7 7 6 4 5 4 4 6 5 5 6 7 7 6 5 6 7 9 10 9 9 9 8 8 8 8 8 8 8 8 8 8 8 8 8 7 6 5 4 2 2 2 3 4 5 5 5 5 5 6 6 6
2 2 3 4 5 7 9 11 12 12 12 12 12 11 11 11 10 9 8 8 8 8 7 8 9 9 10 10 10 8 7 8 9 8 6 5 3 4 4 5 6 5 5 5 6 7 8 10 10 9 9 9 8 8 8 8 7 7 7 6 6 6 6 7 8 8 8 7 7 7 6 5 4 3 3 4 5 6 8 7 6 7 8 8 8
3 1 2 4 4 6 8 10 11 11 12 12 12 11 12 11 10 10 9 9 8 9 8 8 10 10 10 11 11 10 9 9 9 7 6 6 3 4 3 3 5 6 6 6 7 8 11 13 12 9 8 8 8 6 6 6 5 5 4 3 3 2 3 4 5 6 6 6 6 6 6 6 5 4 5 5 5 6 8 7 6 6 6 7 8
4 3 2 3 4 5 6 9 10 11 12 12 12 12 12 12 11 11 10 10 9 10 9 9 10 11 11 12 11 10 9 8 8 7 6 5 3 3 3 3 5 5 5 7 9 10 12 14 13 10 8 9 8 6 4 3 3 2 2 1 1 1 1 1 2 3 4 5 5 5 5 5 5 5 6 8 9 9 9 9 7 5 4 5 6
5 4 3 3 3 4 5 7 9 11 12 12 12 12 13 13 12 12 11 11 10 11 10 10 10 11 12 12 11 9 8 7 7 8 7 6 4 3 4 5 6 5 6 8 10 11 12 13 13 10 8 8 8 5 3 2 1 1 1 1 1 2 2 2 2 2 3 3 4 5 6 6 5 5 6 8 10 10 9 9 8 6 4 1 3
6 4 4 3 3 4 5 7 9 10 12 13 13 13 14 13 13 12 12 12 12 11 11 11 10 11 12 12 10 9 8 7 7 9 9 7 6 5 6 6 5 6 8 9 11 12 12 12 11 7 6 6 5 4 2 1 1 1 1 1 2 2 3 3 3 3 3 3 3 4 5 6 6 7 8 8 8 8 7 7 6 5 5 5 6
7 5 5 4 4 4 5 6 8 10 11 13 14 14 14 14 14 13 13 13 12 12 12 11 11 11 11 11 10 9 9 8 8 9 9 9 9 8 8 8 7 7 9 11 11 11 11 10 8 6 5 4 3 2 1 0 1 1 1 1 2 2 2 3 3 3 3 3 3 3 4 5 6 7 8 8 8 8 7 7 6 5 6 8 10
6 5 4 4 5 5 5 6 7 9 11 13 14 14 15 15 15 14 14 14 13 13 13 12 12 11 10 10 10 9 9 8 8 9 9 9 10 9 8 9 9 10 11 12 11 10 10 10 8 6 5 4 2 1 1 2 2 1 1 1 1 2 2 3 3 4 5 5 5 4 4 5 6 7 7 9 10 9 8 8 7 6 6 8 10
6 4 3 4 5 6 6 6 7 9 11 12 14 14 15 16 16 16 15 15 14 14 14 14 13 12 12 11 11 11 10 9 9 9 9 10 11 10 9 10 11 12 13 14 12 10 9 9 8 7 5 4 3 2 2 3 2 2 1 1 2 2 3 3 4 4 5 5 6 6 6 6 6 7 8 10 11 10 9 9 8 8 7 8 9
8 6 4 4 4 6 7 8 8 8 10 12 13 14 15 16 16 17 17 16 15 15 15 15 14 14 13 12 12 12 11 11 11 11 11 12 12 11 12 12 13 14 15 16 14 11 9 9 8 7 6 5 4 3 3 4 4 3 2 2 3 4 4 5 5 5 5 5 6 6 6 6 7 8 9 10 11 10 10 10 10 9 8 8 9
10 9 7 6 6 6 7 8 8 8 9 10 12 13 14 15 16 17 17 17 16 16 16 16 15 14 14 14 14 13 12 12 13 13 13 14 13 13 14 13 14 16 15 15 15 12 10 9 7 7 6 5 5 5 5 5 4 4 4 4 4 5 6 6 6 6 6 6 6 6 6 7 7 7 8 9 10 11 10 10 10 10 10 10 9
11 10 9 8 8 8 8 8 8 8 9 9 10 12 13 14 16 16 17 17 17 16 16 16 16 15 15 15 15 15 14 13 14 15 15 16 15 15 15 14 15 17 14 13 14 12 11 9 7 7 7 6 6 6 6 6 5 5 5 5 5 6 6 6 6 6 6 6 6 7 7 8 8 8 8 9 9 10 10 11 11 11 11 10 10
10 10 9 9 9 9 9 8 8 8 8 9 10 11 11 13 14 15 16 17 16 16 16 16 16 16 16 16 16 16 15 14 15 15 16 16 16 16 16 16 16 17 15 13 13 12 10 8 7 7 7 8 8 8 8 7 7 6 6 6 6 6 6 6 6 6 6 6 6 7 7 8 8 9 9 9 9 9 10 10 10 11 11 11 11
8 9 9 9 9 9 9 8 8 8 8 9 9 10 11 12 13 14 15 16 17 17 17 17 16 16 16 16 16 16 16 16 15 16 16 16 16 17 17 16 16 18 17 16 14 12 10 7 6 6 7 9 9 9 9 9 8 7 7 7 7 7 7 6 6 6 6 6 6 7 7 7 8 9 10 10 9 9 10 10 10 10 11 11 11
8 9 9 10 10 9 8 7 7 7 8 8 8 9 9 11 12 13 15 16 16 17 17 17 17 17 17 16 16 16 16 16 15 16 16 15 16 16 17 16 16 17 17 16 15 13 11 7 5 4 6 8 10 10 10 11 10 9 9 9 8 8 8 7 7 7 7 8 8 8 8 8 8 9 10 10 10 10 10 10 10 10 11 11 11
9 10 11 10 10 10 9 7 7 7 7 7 7 7 7 8 10 11 13 15 16 17 18 18 18 17 16 17 17 17 17 17 17 17 17 16 16 16 17 16 15 16 18 18 16 14 13 9 6 5 5 7 10 10 11 12 12 11 10 10 10 9 8 8 8 8 8 9 9 9 9 9 9 10 11 11 11 11 11 11 11 11 11 11 11
11 12 12 12 11 11 10 8 8 7 7 6 6 6 6 7 7 9 11 12 13 16 18 18 20 20 16 16 16 16 18 20 19 17 16 16 17 18 17 18 18 17 19 22 20 18 16 12 8 7 6 7 10 11 12 13 13 13 12 11 11 10 9 8 8 8 9 9 10 10 10 11 11 11 12 13 13 12 13 13 13 13 13 12 10
11 12 12 11 11 11 11 9 9 8 8 7 6 6 5 5 6 7 9 10 10 15 20 18 18 20 19 19 19 18 18 20 19 19 17 16 18 18 17 19 20 19 18 22 23 19 16 13 11 9 9 9 10 12 13 14 14 14 13 13 13 12 11 9 9 9 9 10 10 11 11 12 12 13 13 14 14 15 15 14 14 14 14 13 12
10 11 11 10 10 10 11 10 9 9 9 9 8 6 5 5 5 5 6 8 8 13 20 19 17 18 18 18 20 21 21 18 16 18 18 16 17 19 19 18 19 20 17 21 24 19 16 15 13 11 11 11 11 12 14 15 16 15 15 14 14 13 12 11 10 9 10 10 11 11 12 12 12 13 13 14 15 15 15 16 16 15 15 14 15
10 10 10 9 9 8 9 10 10 10 10 10 9 8 7 5 4 4 4 6 6 6 13 19 20 19 16 15 18 20 21 18 14 16 17 17 19 18 18 17 20 21 17 21 22 17 19 19 14 13 14 13 12 13 15 17 17 17 16 16 16 15 14 12 11 11 11 11 11 11 12 12 12 12 13 14 14 15 16 16 16 17 15 14 16
9 9 8 8 7 6 6 8 10 10 10 11 10 9 8 7 5 4 4 4 5 5 6 12 16 18 19 18 18 17 17 17 15 15 16 18 19 17 17 17 18 21 18 19 18 17 22 19 15 17 16 13 13 13 14 17 18 18 18 17 17 17 16 14 13 13 12 12 12 12 12 12 13 13 13 13 14 15 16 16 16 17 16 15 15
8 8 7 7 6 5 4 6 8 9 11 11 11 10 9 8 7 5 5 4 4 6 6 7 9 12 17 17 15 14 13 14 14 13 13 15 14 13 17 18 16 18 19 19 19 20 20 17 16 19 17 13 12 13 14 15 18 20 20 19 18 18 18 17 16 15 14 13 13 13 14 14 14 13 13 13 14 14 15 16 16 16 16 15 15
8 8 7 6 5 4 3 5 6 8 10 11 11 11 10 9 8 6 5 4 4 5 6 6 5 7 11 12 10 10 10 10 10 10 10 10 9 8 12 15 15 16 17 18 20 18 15 14 17 18 15 11 10 12 13 14 16 19 21 21 21 20 20 19 18 17 16 15 15 14 15 15 15 15 14 14 13 14 15 16 17 16 16 16 15
8 8 7 6 5 4 3 4 5 7 8 10 10 10 10 10 9 8 6 5 3 2 3 3 3 4 6 8 8 10 11 10 10 10 10 9 6 8 12 13 14 15 14 17 18 15 14 15 16 16 13 11 12 13 13 14 15 17 20 22 23 22 22 22 21 20 19 18 17 16 17 16 16 16 16 15 14 14 15 16 17 17 17 17 16
7 7 7 6 5 4 4 4 4 5 6 7 8 9 10 10 9 9 7 6 5 4 4 4 4 5 6 6 7 9 10 10 10 9 9 6 4 6 8 9 11 12 12 13 13 11 13 14 13 14 14 13 15 16 14 14 13 14 16 19 22 24 24 24 23 22 22 20 19 19 18 18 17 17 17 16 16 15 16 16 17 18 18 18 18
5 5 5 4 4 3 3 3 3 3 3 4 5 6 7 8 8 7 7 7 7 7 7 7 7 8 9 10 9 9 8 8 8 7 6 5 4 6 6 6 7 8 9 10 10 9 10 11 11 12 13 14 16 17 16 14 13 13 13 16 19 22 24 25 25 24 23 23 22 21 20 19 19 19 18 18 17 17 17 17 17 18 18 18 19
3 3 4 4 3 2 2 2 1 1 1 1 2 3 4 5 6 6 7 6 6 7 7 8 10 10 10 10 9 10 11 10 9 9 10 8 7 9 7 6 7 8 7 6 7 8 9 9 11 12 14 15 16 18 18 17 16 15 14 14 15 18 21 23 25 25 25 24 24 23 22 22 21 20 20 19 19 19 18 18 18 18 19 19 19
3 4 4 3 3 3 3 2 2 2 2 2 1 1 1 2 3 5 6 6 6 6 6 8 9 8 8 8 9 10 10 9 9 9 10 9 10 11 9 8 11 10 8 9 11 12 12 10 10 12 13 14 13 14 17 18 19 19 18 16 15 16 17 19 21 24 26 26 25 26 25 24 23 23 22 21 21 20 20 20 20 20 20 20 20
5 4 4 4 3 3 3 3 4 4 4 4 4 3 2 1 1 2 4 5 5 5 5 6 5 5 7 8 10 12 11 9 9 9 10 10 10 13 13 13 14 11 10 13 15 15 14 14 13 12 12 12 11 12 14 16 17 19 20 20 19 18 17 18 19 20 23 25 27 27 27 27 25 25 24 24 23 23 22 22 22 22 21 21 21
5 5 5 5 4 4 4 4 5 6 6 6 6 5 3 2 2 1 2 2 2 3 3 3 2 3 4 4 5 7 8 9 10 10 11 11 10 9 9 10 11 11 12 14 14 13 13 15 15 14 13 13 13 14 15 16 17 18 19 21 22 22 21 20 19 19 20 22 25 27 28 28 27 27 26 26 26 25 25 25 24 24 23 23 23
5 5 6 6 6 7 6 6 7 8 7 7 6 5 3 3 2 1 0 1 2 2 2 2 2 3 4 3 3 3 4 8 10 11 11 12 12 12 12 12 10 10 12 13 13 13 14 15 16 15 14 14 15 16 16 17 18 19 21 22 22 23 24 23 23 21 20 20 22 24 25 27 28 28 27 27 27 27 27 27 27 26 26 25 25
7 7 7 8 9 9 9 9 10 9 8 8 6 5 4 3 2 2 2 3 2 1 1 1 2 3 4 5 6 7 7 8 9 10 10 11 13 14 14 13 12 12 12 11 10 11 13 14 15 14 14 14 16 16 17 19 21 22 23 24 24 25 26 27 26 24 23 22 22 22 23 24 26 27 27 28 28 28 28 29 29 29 28 28 27
12 13 13 14 14 13 14 14 13 12 11 11 9 8 8 7 6 6 6 4 4 3 3 3 3 3 4 5 6 7 7 8 8 10 11 12 14 15 15 15 16 16 16 15 14 14 14 14 15 15 15 16 16 16 18 20 21 22 24 26 27 26 27 27 27 26 25 24 23 22 22 22 22 23 25 27 28 29 29 30 31 31 30 30 29
19 20 21 21 20 20 20 20 18 17 17 16 14 15 15 13 12 12 10 8 8 8 7 7 6 5 4 4 4 4 5 6 6 7 9 11 13 14 14 15 16 18 19 19 19 19 19 18 18 18 18 17 17 17 17 18 19 20 21 22 24 27 28 26 24 24 24 24 24 24 24 22 21 21 22 22 24 26 28 29 31 32 32 32 31
24 24 24 24 24 24 24 23 22 21 21 20 19 19 18 17 16 14 13 12 13 12 10 10 9 8 7 7 7 6 6 6 5 5 6 6 7 8 9 11 12 13 15 16 17 18 18 18 18 18 18 18 17 17 17 18 18 18 17 17 19 22 22 21 25 27 25 25 25 23 23 22 21 21 21 20 20 21 22 24 26 28 30 31 32
25 25 25 25 25 24 24 23 23 22 22 21 20 19 17 17 16 15 14 14 14 13 11 12 12 10 10 10 10 9 9 8 7 7 7 7 7 7 7 7 8 8 9 10 11 12 13 14 15 16 17 17 17 17 17 17 17 16 15 15 15 15 17 22 29 31 27 25 25 25 24 23 24 24 24 24 22 21 21 21 21 23 24 26 28
25 25 24 24 24 23 23 22 22 22 22 21 20 18 16 16 15 14 13 12 12 12 12 13 12 11 12 11 11 10 10 9 9 8 8 8 7 7 7 7 7 8 8 9 10 10 11 12 13 13 14 15 16 16 17 18 17 16 15 14 13 14 19 24 26 29 33 33 30 29 29 28 29 29 30 29 28 26 26 25 25 24 23 23 23
24 23 22 22 21 21 21 20 21 21 21 20 18 16 15 14 13 12 11 10 10 12 13 12 12 12 11 9 9 9 9 9 9 9 8 8 8 8 8 8 8 8 8 9 9 10 11 12 12 13 13 14 15 15 16 17 17 16 16 16 15 16 18 20 22 26 33 38 36 33 32 32 32 32 33 33 32 32 32 32 31 31 29 28 26
22 21 20 20 19 19 19 19 19 19 19 17 15 14 13 13 12 11 10 10 11 11 11 9 9 9 7 7 7 7 7 8 8 8 9 9 9 9 9 9 9 9 9 10 10 10 11 11 11 12 13 13 14 14 15 17 17 17 17 18 18 19 19 20 21 22 25 33 40 40 38 36 35 35 35 34 34 34 35 36 35 35 35 33 32
20 19 18 17 17 16 16 16 17 17 17 15 13 13 12 11 11 10 9 9 10 9 8 7 6 6 5 5 5 5 6 6 6 7 7 8 8 9 9 9 9 10 11 12 12 12 12 12 12 12 12 12 13 14 14 16 17 18 19 20 20 21 21 21 22 22 22 26 34 40 42 41 40 38 36 35 34 34 35 36 37 37 37 36 36
17 16 16 15 15 14 13 13 15 15 14 13 11 11 11 10 9 9 9 9 8 7 6 4 4 4 3 4 4 4 5 5 6 6 6 7 8 8 9 9 10 11 11 11 12 13 14 14 14 14 14 14 14 14 14 14 15 16 17 19 20 20 21 22 22 23 25 26 29 35 40 43 45 44 41 39 38 37 36 36 37 37 37 37 37
15 14 14 13 12 12 10 11 13 13 12 11 10 10 10 9 9 9 8 8 7 5 4 3 4 3 3 4 4 4 5 5 6 6 6 7 7 9 9 10 10 10 10 11 12 13 14 15 15 15 15 15 15 15 15 15 15 16 16 17 17 18 19 20 21 22 24 27 30 34 37 40 45 47 45 44 43 41 39 38 37 36 36 36 37
Wind_Direction
175 167 170 175 178 178 179 186 186 184 182 182 181 185 192 198 201 201 198 201 205 203 200 194 194 191 184 174 159 148 133 127 132 137 138 141 139 131 119 98 76 65 63 57 55 59 50 47 57 82 23 289 122 114 111 109 100 93 81 75 94 124 140 119 114 131 124 116 116 115 113 114 114 108 103 93 89 87 84 80 77 79 87 85 85
173 173 171 173 181 182 184 186 187 190 187 187 185 188 194 202 207 205 204 211 220 225 224 214 205 199 190 180 169 161 155 153 155 151 148 153 148 138 121 105 99 93 91 85 72 43 41 65 87 96 103 214 280 107 91 100 103 99 95 80 75 60 53 59 91 127 126 120 116 110 108 111 110 103 96 88 83 78 76 72 66 63 69 82 88
160 178 176 171 178 183 187 188 189 192 194 194 190 192 200 209 215 215 216 223 234 239 242 235 223 211 196 187 182 173 165 166 167 162 163 171 166 154 124 109 110 112 119 113 139 275 295 104 88 71 97 162 221 265 114 107 120 117 117 103 85 61 49 48 54 98 122 126 118 103 106 113 109 102 96 88 86 80 78 74 72 67 67 80 80
143 172 179 174 175 180 188 191 193 194 197 200 197 201 208 217 223 226 227 233 240 242 245 243 235 221 205 196 194 183 168 166 165 163 168 211 272 314 317 93 104 111 132 141 238 263 246 178 92 43 60 155 176 285 298 297 223 173 150 141 115 80 64 59 47 41 17 86 107 91 93 108 108 100 91 79 78 77 79 77 77 77 75 84 82
132 165 181 180 176 178 186 190 194 197 200 203 205 208 213 223 228 231 234 238 238 239 243 240 234 224 212 204 207 197 169 173 216 259 293 306 310 320 310 319 103 124 149 174 227 241 235 207 189 37 39 23 193 279 316 319 311 272 183 165 145 128 98 77 10 309 326 344 16 34 26 37 64 70 63 44 35 36 56 73 76 82 79 86 96
135 158 181 186 183 181 184 188 191 196 202 207 208 212 217 225 230 235 241 242 239 240 240 231 224 219 212 207 215 214 206 212 242 267 282 292 299 304 299 298 155 161 180 206 231 235 241 227 265 9 33 11 328 290 285 286 290 295 293 290 305 259 242 216 235 255 271 289 298 311 326 340 348 10 17 359 352 342 329 324 35 86 85 85 101
146 151 179 191 191 187 187 189 190 193 200 205 210 215 220 225 229 236 240 242 245 246 239 226 217 213 208 210 220 225 231 231 253 273 285 295 295 290 284 281 229 193 206 224 241 253 267 253 272 329 355 344 335 318 295 277 271 275 280 288 299 289 275 258 246 250 261 261 264 282 295 314 331 38 32 0 0 344 316 295 282 290 183 104 105
169 153 166 188 197 195 193 192 192 193 197 201 207 215 221 226 229 232 232 237 246 246 236 227 219 214 211 214 223 231 240 248 268 287 298 301 291 272 260 260 228 206 223 235 249 270 289 274 268 308 322 316 314 313 302 286 277 271 271 278 285 284 282 276 263 257 263 264 263 273 283 301 297 100 63 359 356 340 328 316 299 301 297 273 251
213 174 158 177 195 200 201 198 197 197 198 200 204 211 219 222 225 228 232 239 245 243 233 230 227 222 220 223 232 240 246 251 269 294 303 301 285 255 233 227 209 202 226 239 254 273 293 281 269 298 305 300 300 303 302 297 288 278 274 273 276 277 278 278 271 263 262 266 265 266 269 286 280 191 114 321 294 297 311 317 309 306 306 294 279
257 197 169 170 188 203 207 205 203 201 202 202 205 210 217 219 219 225 231 239 245 245 239 237 238 232 231 234 241 249 255 261 277 295 305 300 273 238 215 200 199 201 225 242 255 264 278 282 280 295 296 290 292 298 300 300 293 285 279 272 271 270 270 272 271 267 265 267 265 261 259 265 278 235 228 277 274 284 295 297 299 300 303 300 294
342 221 190 176 187 204 211 213 211 208 207 205 208 210 217 220 219 224 230 234 238 242 243 243 248 246 243 244 250 257 264 274 287 299 308 306 270 229 214 194 197 206 228 246 261 271 281 284 284 292 293 289 291 296 299 298 293 285 281 278 274 269 267 267 269 271 270 273 272 268 267 264 271 253 235 269 283 289 292 292 294 302 310 306 301
0 289 219 193 194 205 212 218 220 218 216 213 211 213 219 223 222 226 231 234 237 239 243 245 251 254 253 254 258 265 273 283 293 301 308 311 290 227 218 197 208 219 235 257 279 290 290 289 292 295 294 294 296 296 298 296 289 284 284 288 290 285 275 268 273 279 282 286 286 283 285 279 274 262 244 253 270 278 284 291 294 307 317 314 315
9 345 284 232 214 213 215 218 225 226 226 224 220 219 222 225 225 227 232 236 239 242 244 247 253 257 258 259 262 267 273 283 290 295 301 307 298 230 210 206 224 238 262 281 287 289 289 293 301 307 300 293 294 299 303 299 288 287 296 311 343 7 3 334 310 302 303 305 304 304 302 298 289 273 257 256 265 277 293 306 308 301 299 320 322
9 351 329 279 248 234 228 221 224 228 230 231 230 228 229 230 230 231 235 238 241 246 248 251 257 260 262 263 263 265 270 273 271 280 291 296 289 236 215 220 235 266 288 290 291 294 295 298 306 313 305 294 295 304 320 326 302 286 312 339 6 14 15 8 360 347 334 324 317 316 312 309 305 292 278 272 277 292 308 320 323 301 269 293 298
14 354 338 314 279 254 245 235 228 228 230 233 235 235 237 238 238 238 239 241 245 249 253 256 261 263 266 267 265 263 264 263 256 268 280 285 285 257 241 247 258 281 290 295 298 302 302 305 315 320 310 304 303 309 336 355 301 311 336 1 10 8 10 3 358 353 347 338 321 314 312 308 306 301 295 292 297 314 327 329 331 305 263 250 264
14 7 348 325 302 276 257 247 239 233 231 233 236 238 241 244 245 245 245 246 248 251 256 261 264 267 269 269 268 265 261 258 256 266 272 276 279 271 263 266 274 285 289 296 301 309 315 322 332 325 311 310 306 313 343 308 264 308 340 9 8 2 1 355 350 343 339 335 324 316 308 303 303 298 297 304 315 330 334 332 328 311 277 264 270
357 4 355 335 316 298 277 258 244 238 235 233 236 237 240 244 248 249 250 251 250 251 254 259 264 266 267 268 264 258 255 252 253 262 266 267 270 271 274 274 279 287 290 296 305 320 331 338 342 328 311 301 295 302 272 249 250 271 308 345 340 341 340 337 337 333 331 329 327 327 318 309 303 294 291 301 317 328 325 324 323 315 298 280 279
326 328 325 319 314 305 293 278 257 242 237 235 236 237 238 241 246 249 251 253 253 253 254 257 259 260 261 262 257 251 248 243 244 252 254 256 260 263 267 270 278 286 292 300 310 327 339 341 342 334 315 294 288 278 248 247 250 255 266 289 306 318 324 326 326 325 326 325 326 326 323 317 307 300 295 297 312 325 321 319 319 315 307 295 289
309 299 292 292 295 296 292 287 276 260 245 239 239 240 240 241 244 247 249 252 253 254 256 257 258 259 259 258 255 250 246 239 238 244 246 249 254 257 261 269 276 281 289 300 310 327 340 340 339 332 312 291 283 270 250 252 258 265 276 293 309 319 324 326 326 326 325 323 322 322 320 317 309 306 303 303 313 322 321 319 318 315 310 305 299
308 303 299 295 293 294 291 286 281 277 264 251 245 243 243 244 244 245 247 250 251 253 255 258 259 259 259 258 255 252 248 241 237 240 243 246 247 249 259 268 275 281 285 295 309 326 334 335 338 326 303 286 277 266 252 255 265 273 284 297 308 319 324 326 328 329 328 325 323 322 319 316 313 310 308 309 314 319 322 320 318 318 314 310 307
300 300 300 297 295 295 296 288 278 274 272 266 257 250 246 245 245 244 245 247 248 250 252 254 256 258 258 256 253 252 250 245 241 242 245 247 245 247 255 261 271 281 285 293 305 320 326 324 329 320 301 284 272 264 256 256 261 269 279 290 302 312 319 323 327 329 328 328 326 325 322 319 317 314 312 312 313 317 320 320 320 319 318 315 311
290 291 290 288 283 282 289 290 282 272 265 265 264 261 255 249 246 244 244 244 245 247 250 251 254 256 256 256 255 252 251 249 247 246 248 249 249 250 252 257 266 273 280 292 299 310 315 311 317 321 308 287 273 267 262 260 262 267 274 284 298 307 316 320 326 328 328 330 329 327 326 323 321 319 317 316 315 317 318 319 320 320 320 318 315
284 286 284 282 275 269 271 276 281 275 264 259 259 262 261 257 251 248 246 243 242 241 243 246 250 254 255 256 256 254 251 250 252 253 252 251 253 256 256 256 261 269 280 290 293 300 306 301 308 322 312 289 278 273 266 265 268 271 276 283 295 304 313 319 323 327 331 334 333 333 332 329 326 323 322 322 322 322 321 320 320 320 319 317 316
278 277 275 276 274 267 262 262 266 266 266 261 255 256 259 262 258 253 249 247 246 243 243 244 245 247 252 257 256 258 257 251 253 256 254 251 250 253 258 258 257 264 276 283 284 295 302 299 302 310 308 287 275 273 269 268 271 272 276 282 290 300 308 315 321 325 331 333 333 334 334 333 331 328 326 327 329 328 326 326 324 322 322 320 317
280 273 265 260 261 261 257 254 251 249 253 258 259 257 257 261 261 259 254 250 247 247 249 251 254 250 244 250 251 251 258 258 253 254 257 259 255 253 256 260 261 263 273 277 278 292 298 298 305 299 297 286 271 265 264 266 270 272 274 278 284 292 300 306 313 319 326 327 329 331 330 332 330 330 329 329 332 332 331 330 329 327 327 326 322
288 281 270 257 249 247 246 243 238 234 230 238 250 255 254 255 260 264 259 255 248 246 251 255 261 263 258 258 257 250 252 256 254 256 258 258 263 267 263 263 264 262 268 272 275 289 294 294 304 302 294 288 274 262 255 256 263 269 270 274 279 285 291 298 304 311 317 319 322 324 326 328 328 330 330 330 332 333 333 332 332 331 331 331 327
294 288 280 267 254 243 237 233 228 227 221 218 228 240 253 257 263 264 263 264 250 242 249 255 256 254 258 264 266 267 263 260 260 261 257 247 249 262 268 266 267 266 266 271 279 287 287 292 304 308 302 290 280 268 257 251 254 260 264 267 272 277 283 288 294 301 306 310 314 316 319 322 325 328 329 330 331 332 333 332 333 332 331 332 332
300 295 290 282 267 247 235 230 224 224 222 218 216 220 236 249 263 268 268 267 252 230 231 243 251 242 244 256 260 266 268 268 273 271 266 261 250 249 251 250 260 271 269 268 278 285 284 293 304 312 312 296 285 274 262 255 252 255 259 263 267 270 275 280 284 289 294 300 304 307 311 315 319 323 325 327 328 329 330 330 332 332 332 328 330
305 302 299 294 283 260 240 230 224 221 221 220 215 211 218 228 242 257 267 266 263 237 214 221 236 236 235 248 256 260 262 263 277 282 276 275 269 258 251 251 259 260 257 269 279 288 290 295 303 313 313 299 290 280 268 260 254 254 257 261 265 268 271 275 278 282 286 290 293 298 302 307 312 315 319 322 323 325 326 328 329 330 331 327 329
311 310 305 301 297 279 253 236 227 223 222 220 214 209 210 213 220 230 243 249 247 253 229 217 224 230 228 234 244 249 252 254 263 271 265 268 273 264 253 257 262 254 257 278 284 285 292 303 312 311 308 300 295 286 278 268 259 256 255 258 262 266 269 271 274 276 279 281 284 290 294 298 302 306 311 314 318 321 322 325 326 326 326 326 327
318 318 314 310 309 293 261 239 229 224 223 220 213 208 206 208 212 217 223 227 225 228 232 226 221 219 220 227 235 235 237 247 256 259 262 269 267 254 247 249 260 264 267 278 283 286 295 309 310 303 300 299 298 293 286 276 266 260 256 256 258 261 264 266 268 270 271 274 276 281 285 289 293 296 302 306 312 314 317 319 319 321 320 322 323
317 320 324 321 318 305 253 227 222 220 220 218 212 206 204 205 210 215 215 213 221 227 216 215 222 207 211 222 231 232 230 238 249 252 263 272 257 253 262 262 269 271 266 273 285 293 299 304 302 298 297 301 308 305 295 282 271 264 259 256 255 257 259 261 262 263 264 266 268 272 274 279 284 288 292 296 302 306 310 311 311 315 315 317 318
322 324 324 319 312 300 258 228 217 216 215 213 211 208 207 206 208 209 205 196 180 211 221 195 212 216 211 219 228 236 233 233 241 248 259 266 256 264 271 272 275 271 266 275 285 296 299 298 301 303 308 318 322 317 307 294 279 269 263 258 256 255 256 257 259 260 260 260 261 264 266 270 275 279 284 287 291 296 301 303 305 310 312 312 313
329 329 324 320 308 293 274 251 233 223 215 211 213 213 213 212 212 212 203 194 167 164 213 203 189 203 212 227 243 246 237 235 238 242 251 248 236 262 268 269 273 272 274 277 282 293 294 293 300 310 318 324 324 321 316 309 297 284 273 265 260 257 257 258 258 259 259 259 259 259 261 264 268 272 276 279 283 287 291 295 299 304 307 308 310
333 338 338 345 335 313 304 282 267 250 229 218 220 220 224 220 218 220 207 200 190 183 201 213 216 220 225 228 233 238 239 242 244 243 239 225 231 248 243 238 241 250 267 276 279 286 290 297 307 313 314 313 315 316 315 315 313 305 292 280 271 265 262 260 260 261 261 260 259 259 260 261 264 267 270 273 276 279 282 287 291 296 299 303 305
357 13 26 28 22 6 360 338 317 297 258 232 237 230 230 227 218 219 215 212 215 208 203 213 223 224 228 233 231 235 239 235 238 247 244 238 254 252 235 243 254 248 253 269 277 280 282 293 301 300 300 302 307 309 308 310 311 310 304 293 283 277 271 267 265 264 262 262 261 261 261 261 262 263 266 269 270 272 275 279 283 287 291 296 299
52 57 62 61 61 62 61 42 44 50 38 48 21 336 252 237 213 210 217 215 217 218 212 219 226 220 226 247 253 256 264 262 256 255 251 247 250 249 242 252 262 255 254 261 264 265 263 262 274 286 290 293 302 308 305 304 302 302 302 298 292 287 282 276 272 268 265 263 262 263 262 262 262 263 265 266 267 268 270 273 276 280 285 288 291
73 77 81 90 92 86 86 67 66 69 60 61 53 47 44 20 171 185 201 211 218 216 217 229 232 225 232 250 255 257 267 276 278 272 268 269 261 254 247 241 243 247 259 268 267 267 268 264 263 270 276 282 299 308 304 302 299 298 297 297 296 293 290 285 279 274 269 265 263 263 263 263 263 264 265 266 267 268 269 271 273 276 279 282 285
82 86 86 88 99 95 92 88 85 83 78 77 71 71 69 58 88 143 196 192 185 175 201 228 219 228 238 244 256 263 261 257 266 270 273 290 300 290 276 262 251 246 254 263 265 267 272 274 270 268 270 279 290 293 294 296 295 295 295 295 295 294 292 289 284 279 274 269 266 264 264 264 265 265 267 268 269 270 270 271 272 273 275 277 280
91 91 92 94 98 95 97 99 94 88 85 88 82 81 74 64 79 53 29 120 140 168 212 226 206 223 225 215 227 249 258 256 265 270 268 278 293 301 307 312 304 282 273 269 264 263 264 267 268 267 270 280 288 288 290 290 289 289 290 290 290 290 290 288 286 284 281 277 274 271 268 265 265 266 267 269 270 271 272 272 272 272 273 274 276
100 102 106 104 99 98 102 98 92 90 92 94 92 94 90 73 74 63 75 96 93 17 320 287 264 266 261 261 260 257 259 261 263 265 265 267 274 279 284 292 297 296 295 293 286 277 271 267 266 265 269 279 286 288 289 289 289 290 288 286 285 285 287 287 288 287 286 285 283 281 277 272 270 269 270 270 269 270 271 272 273 273 273 273 274
109 110 108 104 103 103 102 97 95 97 94 91 91 93 91 82 78 76 73 80 81 62 40 34 18 350 320 304 302 298 292 284 273 266 266 268 271 274 273 271 275 281 287 293 295 292 289 286 284 282 282 284 285 286 286 288 291 294 295 293 291 288 285 285 287 288 287 287 287 287 285 282 279 274 272 271 270 270 270 271 273 273 274 274 273
109 107 104 103 104 103 100 99 99 99 94 91 89 87 85 81 79 78 75 80 85 79 71 68 61 47 32 15 3 351 341 327 308 294 283 278 277 278 278 274 272 275 278 281 283 287 289 290 290 290 290 290 290 290 290 293 294 297 300 301 301 299 295 292 288 283 283 285 286 289 289 287 284 278 275 275 274 272 272 272 272 273 274 274 274
104 102 102 101 101 99 98 98 97 95 93 91 88 83 82 81 81 81 83 84 82 79 78 77 73 69 66 60 52 45 30 14 2 348 330 317 307 299 293 287 283 280 278 277 279 281 283 285 287 288 289 290 291 294 296 298 299 300 303 303 305 306 304 302 295 288 285 284 283 283 284 283 280 278 278 279 278 276 275 274 273 273 273 274 274
102 100 99 98 97 96 95 95 93 92 90 88 85 82 81 80 79 78 76 76 79 81 78 75 74 68 62 56 49 44 35 25 19 13 5 359 351 341 334 324 316 308 300 296 293 291 290 289 289 288 289 290 291 294 296 297 299 303 305 306 308 306 302 303 302 298 292 287 284 282 280 279 278 278 278 278 277 276 277 277 278 277 276 275 275
101 98 96 94 93 92 91 90 88 86 84 80 78 76 74 73 73 74 75 77 80 78 69 65 63 56 49 46 41 35 29 22 16 11 7 4 359 355 350 344 340 335 331 328 322 317 311 305 302 298 295 293 293 294 293 292 295 299 299 299 297 295 297 303 306 303 298 294 291 288 285 283 281 279 279 279 277 276 276 278 279 279 278 278 277
98 95 93 92 91 90 89 88 86 83 80 78 77 75 73 74 72 72 74 72 65 62 60 55 51 48 44 40 37 31 25 20 14 11 7 4 2 359 356 352 348 346 342 338 334 331 328 324 321 316 311 306 301 300 299 296 295 294 293 294 292 290 294 300 304 305 304 301 297 295 293 291 289 286 283 281 280 278 277 277 278 277 277 277 276
97 96 94 92 90 89 88 87 86 85 83 81 81 79 75 73 69 62 62 60 57 60 61 55 52 51 41 35 34 27 22 19 14 14 12 11 10 8 10 8 5 5 1 357 356 354 350 345 339 332 327 323 318 315 312 308 305 301 296 295 294 294 295 297 301 305 308 305 299 298 298 297 295 292 289 286 283 282 281 280 280 279 278 277 275
100 98 95 93 90 88 87 86 86 84 84 82 79 76 71 67 63 55 55 58 58 61 61 55 52 46 27 23 23 15 16 13 10 13 13 14 15 15 16 14 14 17 15 15 14 12 10 6 4 0 355 351 346 340 331 324 320 315 309 304 300 297 296 296 299 300 302 304 301 299 299 299 297 294 293 292 288 287 285 283 282 281 280 278 277
104 99 96 93 90 87 86 85 83 81 80 78 71 68 65 59 55 49 50 57 59 61 60 47 41 35 13 6 7 7 8 4 5 8 7 11 14 13 12 11 14 17 16 17 16 13 14 14 15 16 15 14 12 9 2 354 346 338 330 322 316 311 307 303 301 299 299 300 301 300 299 300 300 298 297 297 294 291 289 287 285 283 282 280 279
106 102 98 95 92 90 84 77 78 76 74 72 62 57 56 48 44 43 44 51 56 56 42 24 25 15 358 1 4 2 2 3 7 5 3 10 13 12 13 14 15 15 14 15 13 13 15 15 16 15 15 16 17 17 15 11 6 1 356 350 344 338 331 322 314 308 303 300 300 299 297 298 299 296 296 298 296 293 292 290 288 287 285 283 281